This is the latest recevied weather packets stored in our database for station/object N3OZD-10. If no packets are shown the sender has not sent any weather packets the latest 10 day(s).
| Time | Temp. | Humidity | Pressure | Rain* | Wind** | Luminosity | Snow |
|---|---|---|---|---|---|---|---|
| 1777677453 | 15° C | 50% | 1010.7 hPa | 0 mm | - | - | - |
| 1777677151 | 15° C | 50% | 1010.7 hPa | 0 mm | - | - | - |
| 1777676851 | 15° C | 50% | 1010.8 hPa | 0 mm | - | - | - |
| 1777676551 | 15° C | 50% | 1010.6 hPa | 0 mm | - | - | - |
| 1777676253 | 15° C | 49% | 1010.6 hPa | 0 mm | - | - | - |
| 1777675951 | 15° C | 49% | 1010.6 hPa | 0 mm | - | - | - |
| 1777675651 | 15° C | 51% | 1010.6 hPa | 0 mm | - | - | - |
| 1777675351 | 15.56° C | 48% | 1010.6 hPa | 0 mm | - | - | - |
| 1777675051 | 15.56° C | 48% | 1010.4 hPa | 0 mm | - | - | - |
| 1777674751 | 15.56° C | 49% | 1010.5 hPa | 0 mm | - | - | - |
| 1777674152 | 15.56° C | 48% | 1010.6 hPa | 0 mm | - | - | - |
| 1777673854 | 15.56° C | 47% | 1010.6 hPa | 0 mm | - | - | - |
| 1777673552 | 16.11° C | 46% | 1010.5 hPa | 0 mm | - | - | - |
| 1777673253 | 16.11° C | 49% | 1010.6 hPa | 0 mm | - | - | - |
| 1777672951 | 16.11° C | 48% | 1010.8 hPa | 0 mm | - | - | - |
| 1777672653 | 16.11° C | 48% | 1010.8 hPa | 0 mm | - | - | - |
| 1777672352 | 15.56° C | 48% | 1010.8 hPa | 0 mm | - | - | - |
| 1777672052 | 15.56° C | 47% | 1010.8 hPa | 0 mm | - | - | - |
| 1777671751 | 15.56° C | 47% | 1010.9 hPa | 0 mm | - | - | - |
| 1777671451 | 15.56° C | 45% | 1010.9 hPa | 0 mm | - | - | - |
| 1777671152 | 15.56° C | 45% | 1010.9 hPa | 0 mm | - | - | - |
| 1777670851 | 16.11° C | 46% | 1010.9 hPa | 0 mm | - | - | - |
| 1777670551 | 16.11° C | 46% | 1011.1 hPa | 0 mm | - | - | - |
| 1777670253 | 16.11° C | 48% | 1011 hPa | 0 mm | - | - | - |
| 1777669954 | 16.11° C | 48% | 1011 hPa | 0 mm | - | - | - |
* Rain latest hour (hover to see other rain measurements)
** Current wind speed in m/s (hover to see current wind gust speed)